| time (UTC) | temp C | wind direction | speed KPH | gust KPH | rain 1hr cm | rain 24hr cm | rain mn cm | humidity % | barometer mb |
| 20260902201257 | 23 | 200 | 0.0 | 0.0 | 0.00 | 0.99 | 1.02 | 92 | 1017.1 |
| 20260902200310 | 23 | 200 | 0.0 | 0.0 | 0.00 | 0.99 | 1.02 | 92 | 1017.5 |
| 20260902195322 | 23 | 200 | 0.0 | 0.0 | 0.00 | 0.99 | 1.02 | 92 | 1017.9 |
| 20260902194254 | 23 | 200 | 0.0 | 0.0 | 0.00 | 0.99 | 1.02 | 91 | 1017.5 |
| 20260902193237 | 23 | 198 | 0.0 | 3.2 | 0.00 | 0.99 | 1.02 | 91 | 1017.2 |
| 20260902190018 | 23 | 105 | 0.0 | 0.0 | 0.00 | 0.99 | 1.02 | 89 | 1016.8 |
| 20260902185010 | 23 | 105 | 0.0 | 0.0 | 0.00 | 0.99 | 1.02 | 91 | 1017.7 |
| 20260902184033 | 23 | 105 | 0.0 | 0.0 | 0.10 | 0.99 | 1.02 | 90 | 1017.5 |
| 20260902181816 | 25 | 97 | 0.0 | 6.4 | 8.76 | 0.46 | 0.61 | 81 | 1019.3 |
| 20260902180829 | 27 | 92 | 3.2 | 12.9 | 0.69 | 0.05 | 0.08 | 76 | 1019.5 |
| 20260902174641 | 32 | 60 | 1.6 | 8.0 | 0.00 | 0.00 | 0.00 | 64 | 1018.4 |
| 20260902173638 | 33 | 0 | 1.6 | 8.0 | 0.00 | 0.00 | 0.00 | 59 | 1018.2 |
| 20260902172628 | 33 | 82 | 0.0 | 6.4 | 0.00 | 0.00 | 0.00 | 59 | 1018.1 |
| 20260902171601 | 32 | 323 | 1.6 | 6.4 | 0.00 | 0.00 | 0.00 | 61 | 1018.0 |
| 20260902170602 | 32 | 355 | 0.0 | 0.0 | 0.00 | 0.00 | 0.00 | 60 | 1017.9 |
| 20260902165530 | 32 | 5 | 1.6 | 9.7 | 0.00 | 0.00 | 0.00 | 59 | 1017.8 |
| 20260902164536 | 33 | 185 | 1.6 | 9.7 | 0.00 | 0.00 | 0.00 | 60 | 1017.7 |
| 20260902163548 | 33 | 103 | 0.0 | 9.7 | 0.00 | 0.00 | 0.00 | 59 | 1017.7 |
| 20260902162523 | 32 | 104 | 0.0 | 6.4 | 0.00 | 0.00 | 0.00 | 58 | 1017.8 |
| 20260902161539 | 33 | 42 | 0.0 | 0.0 | 0.00 | 0.00 | 0.00 | 59 | 1017.8 |
| 20260902155333 | 32 | 74 | 1.6 | 8.0 | 0.00 | 0.00 | 0.00 | 60 | 1017.6 |
| 20260902154332 | 32 | 192 | 0.0 | 4.8 | 0.00 | 0.00 | 0.00 | 60 | 1017.6 |
| 20260902153316 | 32 | 104 | 0.0 | 9.7 | 0.00 | 0.00 | 0.00 | 61 | 1017.6 |
| 20260902152326 | 32 | 115 | 1.6 | 9.7 | 0.00 | 0.00 | 0.00 | 62 | 1017.6 |
| 20260902151304 | 31 | 105 | 1.6 | 9.7 | 0.00 | 0.00 | 0.00 | 63 | 1017.5 |
| 20260902150303 | 31 | 187 | 0.0 | 1.6 | 0.00 | 0.00 | 0.00 | 64 | 1017.5 |
| 20260902145257 | 30 | 107 | 3.2 | 8.0 | 0.00 | 0.00 | 0.00 | 64 | 1017.6 |
| 20260902144312 | 30 | 111 | 1.6 | 9.7 | 0.00 | 0.00 | 0.00 | 65 | 1017.6 |
| 20260902143333 | 30 | 119 | 4.8 | 9.7 | 0.00 | 0.00 | 0.00 | 66 | 1017.4 |
| 20260902142259 | 31 | 114 | 0.0 | 8.0 | 0.00 | 0.00 | 0.00 | 65 | 1017.6 |
| 20260902141323 | 30 | 84 | 1.6 | 8.0 | 0.00 | 0.00 | 0.00 | 66 | 1017.6 |
| 20260902140319 | 30 | 88 | 1.6 | 8.0 | 0.00 | 0.00 | 0.00 | 67 | 1017.6 |
| 20260902134131 | 30 | 123 | 1.6 | 8.0 | 0.00 | 0.00 | 0.00 | 68 | 1017.4 |
| 20260902132003 | 29 | 108 | 0.0 | 1.6 | 0.00 | 0.00 | 0.00 | 70 | 1017.5 |
| 20260902125858 | 28 | 115 | 0.0 | 6.4 | 0.00 | 0.00 | 0.00 | 72 | 1017.3 |
| 20260902124844 | 27 | 284 | 0.0 | 0.0 | 0.00 | 0.00 | 0.00 | 77 | 1017.4 |
| 20260902123851 | 27 | 275 | 0.0 | 0.0 | 0.00 | 0.00 | 0.00 | 79 | 1017.3 |
| 20260902121746 | 25 | 275 | 0.0 | 0.0 | 0.00 | 0.00 | 0.00 | 84 | 1017.1 |
| 20260902120801 | 25 | 275 | 0.0 | 0.0 | 0.00 | 0.00 | 0.00 | 87 | 1017.1 |
| 20260902114645 | 24 | 275 | 0.0 | 0.0 | 0.00 | 0.00 | 0.00 | 88 | 1017.0 |
| 20260902113615 | 24 | 275 | 0.0 | 0.0 | 0.00 | 0.00 | 0.00 | 88 | 1016.9 |
| 20260902112621 | 24 | 275 | 0.0 | 0.0 | 0.00 | 0.00 | 0.00 | 89 | 1016.9 |
| 20260902111554 | 24 | 275 | 0.0 | 0.0 | 0.00 | 0.00 | 0.00 | 90 | 1017.0 |
| 20260902110556 | 24 | 275 | 0.0 | 0.0 | 0.00 | 0.00 | 0.00 | 89 | 1017.0 |
| 20260902105556 | 23 | 275 | 0.0 | 0.0 | 0.00 | 0.00 | 0.00 | 89 | 1017.1 |
| 20260902104523 | 23 | 275 | 0.0 | 0.0 | 0.00 | 0.00 | 0.00 | 89 | 1017.1 |
| 20260902102351 | 24 | 275 | 0.0 | 0.0 | 0.00 | 0.00 | 0.00 | 89 | 1017.0 |
| 20260902101347 | 24 | 275 | 0.0 | 0.0 | 0.00 | 0.00 | 0.00 | 88 | 1017.0 |
| 20260902100333 | 24 | 275 | 0.0 | 0.0 | 0.00 | 0.00 | 0.00 | 88 | 1016.7 |
| 20260902095351 | 24 | 275 | 0.0 | 0.0 | 0.00 | 0.00 | 0.00 | 89 | 1016.7 |
| 20260902093233 | 23 | 275 | 0.0 | 0.0 | 0.00 | 0.00 | 0.00 | 88 | 1016.7 |
| 20260902092237 | 23 | 275 | 0.0 | 0.0 | 0.00 | 0.00 | 0.00 | 88 | 1016.8 |
| 20260902091210 | 23 | 275 | 0.0 | 0.0 | 0.00 | 0.00 | 0.00 | 88 | 1016.7 |
| 20260902090206 | 23 | 275 | 0.0 | 0.0 | 0.00 | 0.00 | 0.00 | 88 | 1016.7 |
| 20260902084027 | 23 | 275 | 0.0 | 0.0 | 0.00 | 0.00 | 0.00 | 87 | 1016.7 |
| 20260902083049 | 24 | 275 | 0.0 | 0.0 | 0.00 | 0.00 | 0.00 | 87 | 1016.7 |
| 20260902082025 | 24 | 275 | 0.0 | 0.0 | 0.00 | 0.00 | 0.00 | 86 | 1016.7 |
| 20260902081038 | 24 | 275 | 0.0 | 0.0 | 0.00 | 0.00 | 0.00 | 86 | 1016.4 |
| 20260902080008 | 24 | 275 | 0.0 | 0.0 | 0.00 | 0.00 | 0.00 | 85 | 1016.4 |
| 20260902075012 | 25 | 275 | 0.0 | 0.0 | 0.00 | 0.00 | 0.00 | 85 | 1016.3 |
| 20260902073946 | 25 | 275 | 0.0 | 0.0 | 0.00 | 0.00 | 0.00 | 84 | 1016.3 |
| 20260902072923 | 25 | 275 | 0.0 | 0.0 | 0.00 | 0.00 | 0.00 | 84 | 1016.2 |
| 20260902071920 | 25 | 275 | 0.0 | 0.0 | 0.00 | 0.00 | 0.00 | 83 | 1016.2 |
| 20260902070933 | 25 | 275 | 0.0 | 0.0 | 0.00 | 0.00 | 0.00 | 82 | 1016.2 |
| 20260902063645 | 25 | 275 | 0.0 | 0.0 | 0.00 | 0.00 | 0.00 | 81 | 1016.0 |
| 20260902062652 | 25 | 275 | 0.0 | 0.0 | 0.00 | 0.00 | 0.00 | 82 | 1016.1 |
| 20260902060515 | 25 | 275 | 0.0 | 0.0 | 0.00 | 0.00 | 0.00 | 81 | 1016.1 |
| 20260902055539 | 25 | 275 | 0.0 | 0.0 | 0.00 | 0.00 | 0.00 | 81 | 1016.0 |
| 20260902054507 | 26 | 275 | 0.0 | 0.0 | 0.00 | 0.00 | 0.00 | 80 | 1015.9 |
| 20260902051224 | 26 | 275 | 0.0 | 0.0 | 0.00 | 0.00 | 0.00 | 79 | 1016.0 |
| 20260902045109 | 26 | 275 | 0.0 | 0.0 | 0.00 | 0.00 | 0.00 | 77 | 1015.9 |
| 20260902044107 | 26 | 275 | 0.0 | 0.0 | 0.00 | 0.00 | 0.00 | 76 | 1015.8 |
| 20260902043049 | 27 | 275 | 0.0 | 0.0 | 0.00 | 0.00 | 0.00 | 77 | 1015.6 |
| 20260902042110 | 27 | 275 | 0.0 | 0.0 | 0.00 | 0.00 | 0.00 | 76 | 1015.4 |
| 20260902041103 | 27 | 275 | 0.0 | 0.0 | 0.00 | 0.00 | 0.00 | 75 | 1015.3 |
| 20260902040111 | 27 | 275 | 0.0 | 0.0 | 0.00 | 0.00 | 0.00 | 75 | 1015.3 |
| 20260902035100 | 27 | 275 | 0.0 | 0.0 | 0.00 | 0.00 | 0.00 | 75 | 1015.2 |
| 20260902034027 | 27 | 275 | 0.0 | 0.0 | 0.00 | 0.00 | 0.00 | 74 | 1015.0 |
| 20260902033048 | 28 | 275 | 0.0 | 0.0 | 0.00 | 0.00 | 0.00 | 73 | 1014.8 |
| 20260902032113 | 28 | 275 | 0.0 | 0.0 | 0.00 | 0.00 | 0.00 | 71 | 1014.8 |
| 20260902031039 | 28 | 275 | 0.0 | 0.0 | 0.00 | 0.00 | 0.00 | 72 | 1014.7 |
| 20260902030046 | 28 | 275 | 0.0 | 1.6 | 0.00 | 0.00 | 0.00 | 70 | 1014.6 |
| 20260902025030 | 28 | 275 | 0.0 | 0.0 | 0.00 | 0.00 | 0.00 | 70 | 1014.5 |
| 20260902021726 | 28 | 275 | 0.0 | 0.0 | 0.00 | 0.00 | 0.00 | 72 | 1015.0 |
| 20260902015554 | 29 | 275 | 0.0 | 0.0 | 0.00 | 0.00 | 0.00 | 72 | 1014.6 |
| 20260902014611 | 29 | 275 | 0.0 | 0.0 | 0.00 | 0.00 | 0.00 | 72 | 1014.5 |
| 20260902012508 | 30 | 275 | 0.0 | 0.0 | 0.00 | 0.00 | 0.00 | 72 | 1014.4 |
| 20260902011511 | 30 | 275 | 0.0 | 0.0 | 0.00 | 0.00 | 0.00 | 72 | 1014.3 |
| 20260902010535 | 30 | 275 | 0.0 | 0.0 | 0.00 | 0.00 | 0.00 | 70 | 1014.2 |
| 20260902005549 | 30 | 275 | 0.0 | 4.8 | 0.00 | 0.00 | 0.00 | 68 | 1014.0 |
| 20260902004534 | 31 | 275 | 0.0 | 0.0 | 0.00 | 0.00 | 0.00 | 69 | 1014.0 |
| 20260902003506 | 31 | 275 | 0.0 | 3.2 | 0.00 | 0.00 | 0.00 | 67 | 1013.6 |
| 20260902002514 | 31 | 277 | 0.0 | 0.0 | 0.00 | 0.00 | 0.00 | 66 | 1013.4 |
| 20260902001453 | 31 | 277 | 0.0 | 0.0 | 0.00 | 0.00 | 0.00 | 65 | 1013.2 |
| 20260902000515 | 32 | 277 | 0.0 | 0.0 | 0.00 | 0.00 | 0.00 | 63 | 1013.1 |
| 20260901235520 | 32 | 277 | 0.0 | 0.0 | 0.00 | 0.00 | 0.00 | 62 | 1013.1 |
| 20260901234522 | 32 | 277 | 0.0 | 0.0 | 0.00 | 0.00 | 0.00 | 61 | 1013.0 |
| 20260901233514 | 33 | 277 | 0.0 | 0.0 | 0.00 | 0.00 | 0.00 | 60 | 1013.0 |
| 20260901231424 | 33 | 219 | 0.0 | 6.4 | 0.00 | 0.00 | 0.00 | 58 | 1013.3 |
| 20260901230351 | 33 | 240 | 0.0 | 6.4 | 0.00 | 0.00 | 0.00 | 58 | 1013.3 |
| 20260901225407 | 33 | 275 | 1.6 | 9.7 | 0.00 | 0.00 | 0.00 | 57 | 1013.4 |
| 20260901224337 | 33 | 271 | 1.6 | 12.9 | 0.00 | 0.00 | 0.00 | 56 | 1013.3 |
| 20260901223341 | 34 | 250 | 1.6 | 12.9 | 0.00 | 0.00 | 0.00 | 54 | 1013.3 |
| 20260901222332 | 34 | 217 | 1.6 | 9.7 | 0.00 | 0.00 | 0.00 | 54 | 1013.4 |
| 20260901221355 | 35 | 259 | 1.6 | 1.6 | 0.00 | 0.00 | 0.00 | 52 | 1013.4 |
| 20260901220351 | 35 | 279 | 3.2 | 14.5 | 0.00 | 0.00 | 0.00 | 50 | 1013.4 |
| 20260901215335 | 35 | 287 | 3.2 | 14.5 | 0.00 | 0.00 | 0.00 | 50 | 1013.4 |
| 20260901214306 | 35 | 333 | 1.6 | 14.5 | 0.00 | 0.00 | 0.00 | 52 | 1013.5 |
| 20260901213321 | 35 | 274 | 1.6 | 14.5 | 0.00 | 0.00 | 0.00 | 49 | 1013.5 |
| 20260901211151 | 35 | 256 | 1.6 | 14.5 | 0.00 | 0.00 | 0.00 | 49 | 1013.4 |
| 20260901210144 | 36 | 323 | 3.2 | 11.3 | 0.00 | 0.00 | 0.00 | 49 | 1013.6 |
| 20260901205204 | 36 | 275 | 3.2 | 12.9 | 0.00 | 0.00 | 0.00 | 49 | 1013.6 |
| 20260901204154 | 36 | 232 | 0.0 | 12.9 | 0.00 | 0.00 | 0.00 | 49 | 1013.7 |
| 20260901203147 | 35 | 208 | 3.2 | 11.3 | 0.00 | 0.00 | 0.00 | 51 | 1013.8 |